Voltar ao catálogo

FENGYUN 1C DEB

AtivoSSO
NORAD 35140·DEBRIS·🇨🇳 China

Lançado May 10, 1999 de Taiyuan Satellite Launch Center

Loading…

Próximas Passagens (próximas 24 horas)

TLE

AtualizadoSource: Space-Track

Época: Sep 12, 2026, 09:13 UTC

1 35140U 99025DLU 26255.38404827  .00000158  00000-0  62843-4 0  9995
2 35140  98.4769 230.9241 0289226 249.1008 107.8988 14.21602986911665

Acompanhe FENGYUN 1C DEB em tempo real com AllMySat

Download on the App Store